Location: Antioch
(38.0049°N, 121.8058°W)
Time: 01:59:56
(UTC+00:00)

SJ-11-01 - Pass Details

Date: 11 February 2026
Orbit: 674 x 689 km, 98.0° (Epoch: 13 March)

Event Time Altitude Azimuth Distance (km) Brightness Sun altitude
Rises 13:09:48 0° 6° (N) 3,039 7.7 -22.5°
Reaches altitude 10° 13:12:05 10° 2° (N) 2,122 6.8 -22.1°
Maximum altitude 13:16:35 52° 287° (WNW) 847 4.3 -21.2°
Enters shadow 13:16:35 52° 286° (WNW) 847 4.3 -21.2°
